Location: Decatur Area Astronomy Club
(40.0275°N, 88.7810°W)
Time: 05:01:39
(UTC-05:00)

Amateur Radio Satellites - All Passes

Search period start: 30 June 2015 04:31
Search period end: 01 July 2015 04:31
Location: Decatur Area Astronomy Club, 40.0275°N, 88.7810°W

Satellite Date Start Highest point End Downlink Frequencies (MHz)
Time Altitude Azimuth
JAS-2 30 Jun 04:34:11 04:40:37 84° 103° (ESE) 04:47:52 435.910
Gurwin Techsat 1B 30 Jun 04:36:49 04:41:07 24° 294° (WNW) 04:45:16 435.225
RS-15 30 Jun 04:43:47 04:54:29 55° 312° (NW) 05:05:29 29.354- 29.394
Cosmos 2491 30 Jun 04:58:42 05:05:39 26° 277° (W) 05:12:16 435.465 / 435.565
AO-7 30 Jun 05:02:35 05:10:58 73° 105° (ESE) 05:19:19 29.400- 29.500
ITAMSAT 1 30 Jun 05:14:17 05:16:24 12° 299° (WNW) 05:18:15 435.822/435.867
Cosmos 2504 30 Jun 05:23:06 05:28:06 21° 84° (E) 05:33:19 435.465 / 435.565
YUBILEINY 30 Jun 05:33:05 05:41:00 37° 289° (WNW) 05:48:48 435.215
HORYU 2 30 Jun 05:35:01 05:38:59 32° 290° (WNW) 05:42:55 437.375
MOZHAYETS 4 30 Jun 06:03:02 06:05:23 13° 271° (W) 06:07:30
Cubesat XI-IV 30 Jun 06:04:29 06:07:33 16° 89° (E) 06:10:52 437.490
CUBESAT XI-V 30 Jun 06:12:42 06:17:21 67° 75° (ENE) 06:22:04 437.345
JAS-2 30 Jun 06:21:07 06:25:13 17° 297° (WNW) 06:29:16 435.910
STRAND 1 30 Jun 06:45:10 06:50:08 53° 72° (ENE) 06:55:10 437.568
AO-7 30 Jun 06:56:26 07:03:07 27° 303° (WNW) 07:09:33 29.400- 29.500
PRISM 30 Jun 06:59:13 07:03:20 70° 76° (ENE) 07:07:32 437.425
RS-15 30 Jun 07:02:03 07:10:19 22° 343° (NNW) 07:18:39 29.354- 29.394
CUTE-I 30 Jun 07:10:09 07:15:30 66° 101° (ESE) 07:20:49 437.470
Cosmos 2504 30 Jun 07:13:44 07:20:57 62° 281° (W) 07:28:03 435.465 / 435.565
DANDE 30 Jun 07:23:55 07:27:22 14° 89° (E) 07:30:59 436.750
Cubesat XI-IV 30 Jun 07:42:52 07:48:11 63° 287° (WNW) 07:53:28 437.490
O/OREOS (USA 219) 30 Jun 07:47:09 07:50:30 22° 103° (ESE) 07:53:58 437.305
CUBESAT XI-V 30 Jun 07:53:27 07:55:21 12° 273° (W) 07:56:57 437.345
AUBIESAT-1 30 Jun 07:53:52 07:56:42 27° 66° (ENE) 07:59:37 437.475
GONETS M04 30 Jun 08:14:40 08:19:43 18° 80° (E) 08:25:17
M-CUBED/EXP-1 PRIME 30 Jun 08:22:54 08:26:11 87° 77° (ENE) 08:29:32 437.505
STRAND 1 30 Jun 08:26:14 08:29:44 18° 269° (W) 08:33:02 437.568
CUSAT 1 30 Jun 08:33:19 08:40:30 68° 98° (E) 08:46:05 437.405
BRITE-PL 30 Jun 08:39:48 08:44:10 55° 99° (E) 08:48:17 437.365/2234.400
GOMX 1 30 Jun 08:40:25 08:44:12 31° 95° (E) 08:47:55 467.674
HO-68 30 Jun 08:41:00 08:46:55 28° 94° (E) 08:52:59 435.675
ISS 30 Jun 08:46:07 08:47:01 11° 130° (SE) 08:48:04 145.825
AAUSAT CUBESAT 2 30 Jun 08:47:41 08:48:39 11° 88° (E) 08:49:53 437.432
CUTE-I 30 Jun 08:51:40 08:55:05 17° 297° (WNW) 08:58:17 437.470
BEESAT 3 30 Jun 08:54:27 08:58:32 79° 302° (WNW) 09:02:39 437.485
BEESAT 2 30 Jun 08:59:41 09:03:47 88° 299° (WNW) 09:07:57 435.950
CUTE 1.7 + AOD 2 30 Jun 09:01:22 09:05:08 30° 96° (E) 09:08:56 437.475
DANDE 30 Jun 09:02:22 09:10:18 86° 99° (E) 09:16:35 436.750
CANX-2 30 Jun 09:03:49 09:07:46 36° 97° (E) 09:11:45 2200.000
COMPASS 1 30 Jun 09:07:32 09:10:50 23° 94° (E) 09:14:14 437.405
RS-15 30 Jun 09:19:58 09:28:20 23° 18° (NNE) 09:37:11 29.354- 29.394
O/OREOS (USA 219) 30 Jun 09:25:41 09:29:44 33° 299° (WNW) 09:33:48 437.305
AUBIESAT-1 30 Jun 09:29:45 09:31:37 14° 263° (W) 09:33:23 437.475
CINEMA 3 30 Jun 09:32:00 09:35:43 31° 96° (E) 09:39:29 145.822/145.860
UNISAT 6 30 Jun 09:32:44 09:35:03 15° 66° (ENE) 09:37:32 437.425
VERMONT LUNAR 30 Jun 09:33:54 09:36:37 27° 155° (SSE) 09:39:22 437.305
DELFI C3 30 Jun 09:36:24 09:37:44 12° 89° (E) 09:39:18 145.870
ZACube-1 30 Jun 09:41:46 09:43:00 11° 89° (E) 09:44:29 437.345
AIST 2 30 Jun 09:46:09 09:50:23 72° 120° (ESE) 09:54:39 435.215
DOVE 4 30 Jun 09:47:51 09:52:01 70° 284° (WNW) 09:56:07 437.250
Cosmos 2499 30 Jun 09:53:39 09:54:43 11° 79° (E) 09:56:23 435.465 / 435.565
SEEDS 30 Jun 09:57:10 10:01:26 75° 284° (WNW) 10:05:40 437.485
NANOSAT C BR1 30 Jun 09:59:06 10:00:26 12° 64° (ENE) 10:01:59 145.865
Oscar 11 30 Jun 09:59:25 10:03:20 33° 96° (E) 10:07:17 145.826/435.025
POLYITAN 1 30 Jun 10:05:39 10:07:50 14° 66° (ENE) 10:10:12 437.675
GONETS M04 30 Jun 10:06:43 10:15:33 88° 276° (W) 10:24:23
DUCHIFAT 1 30 Jun 10:06:56 10:09:02 14° 66° (ENE) 10:11:19 145.980
ANTELSAT 30 Jun 10:15:11 10:19:15 42° 73° (ENE) 10:23:18 437.575/2403.000
UWE-3 30 Jun 10:17:20 10:21:15 38° 98° (E) 10:25:15 435.000/436.395/437.385
FUNcube-1 30 Jun 10:18:06 10:21:46 29° 96° (E) 10:25:31 145.935
CUSAT 1 30 Jun 10:18:34 10:23:18 19° 289° (WNW) 10:27:07 437.405
GOMX 1 30 Jun 10:19:00 10:22:12 20° 292° (WNW) 10:25:13 467.674
ISS 30 Jun 10:19:48 10:23:03 74° 324° (NW) 10:26:18 145.825
BRITE-PL 30 Jun 10:20:05 10:22:13 13° 297° (WNW) 10:24:07 437.365/2234.400
AAUSAT CUBESAT 2 30 Jun 10:20:33 10:24:43 59° 285° (WNW) 10:28:50 437.432
PHONESAT 2.4 30 Jun 10:20:57 10:23:02 15° 148° (SSE) 10:25:12 2401.200-2431.200
HO-68 30 Jun 10:28:04 10:35:00 54° 292° (WNW) 10:41:53 435.675
TIGRISAT 30 Jun 10:29:33 10:33:48 59° 75° (ENE) 10:38:00 435.000
QB50P2 30 Jun 10:34:30 10:38:09 29° 70° (ENE) 10:41:52 145.880/145.840
BEESAT 3 30 Jun 10:36:22 10:37:14 10° 322° (NW) 10:37:58 437.485
POPSAT HIP 1 30 Jun 10:36:28 10:40:09 29° 70° (ENE) 10:43:52 437.405
CUTE 1.7 + AOD 2 30 Jun 10:37:32 10:40:54 22° 291° (WNW) 10:44:12 437.475
HUMSAT D 30 Jun 10:38:37 10:41:49 22° 94° (E) 10:45:06 437.325/437.525
CANX-2 30 Jun 10:40:23 10:43:28 19° 292° (WNW) 10:46:28 2200.000
BEESAT 2 30 Jun 10:41:01 10:42:32 12° 321° (NW) 10:43:55 435.950
COMPASS 1 30 Jun 10:42:51 10:46:32 29° 289° (WNW) 10:50:08 437.405
BUGSAT 1 30 Jun 10:44:00 10:47:21 24° 69° (ENE) 10:50:46 437.445
DANDE 30 Jun 10:49:12 10:53:55 17° 292° (WNW) 10:57:44 436.750
CUBEBUG 2 30 Jun 10:52:24 10:56:32 63° 285° (WNW) 11:00:43 437.445
DX 1 30 Jun 11:03:35 11:07:33 34° 97° (E) 11:11:31 434.975-435.025
UNISAT 6 30 Jun 11:07:18 11:11:30 48° 261° (W) 11:15:40 437.425
DELFI C3 30 Jun 11:09:14 11:13:12 52° 286° (WNW) 11:17:09 145.870
CINEMA 3 30 Jun 11:09:42 11:12:46 20° 291° (WNW) 11:15:45 145.822/145.860
VERMONT LUNAR 30 Jun 11:10:13 11:13:22 86° 172° (S) 11:16:33 437.305
QB50P1 30 Jun 11:15:23 11:19:38 84° 80° (E) 11:23:55 145.935-145.965
ZACube-1 30 Jun 11:15:40 11:19:47 56° 285° (WNW) 11:23:55 437.345
AISAT 30 Jun 11:21:18 11:25:12 30° 96° (E) 11:29:06 437.250
AIST 2 30 Jun 11:26:59 11:29:29 15° 319° (NW) 11:31:51 435.215
NANOSAT C BR1 30 Jun 11:31:35 11:35:48 64° 259° (W) 11:40:01 145.865
UKube-1 30 Jun 11:31:35 11:35:54 67° 102° (ESE) 11:40:11 .
RS-15 30 Jun 11:32:56 11:44:17 55° 48° (NE) 11:56:09 29.354- 29.394
Oscar 11 30 Jun 11:36:01 11:39:21 21° 292° (WNW) 11:42:34 145.826/435.025
ESTCUBE 1 30 Jun 11:36:05 11:39:59 28° 95° (E) 11:43:56 437.505/2401.250
POLYITAN 1 30 Jun 11:39:13 11:43:22 50° 260° (W) 11:47:31 437.675
Cosmos 2499 30 Jun 11:39:43 11:46:48 79° 96° (E) 11:53:54 435.465 / 435.565
DUCHIFAT 1 30 Jun 11:40:19 11:44:28 51° 260° (W) 11:48:37 145.980
50 SAT 30 Jun 11:43:27 11:47:19 63° 101° (E) 11:51:11 437.505
ANTELSAT 30 Jun 11:53:32 11:56:17 16° 269° (W) 11:58:50 437.575/2403.000
CUBEBUG 1 30 Jun 11:54:16 11:58:19 37° 97° (E) 12:02:21 437.445
FUNcube-1 30 Jun 11:54:42 11:57:58 22° 291° (WNW) 12:01:11 145.935
UWE-3 30 Jun 11:54:44 11:57:33 17° 292° (WNW) 12:00:14 435.000/436.395/437.385
PHONESAT 2.4 30 Jun 11:57:16 12:00:40 58° 163° (SSE) 12:04:05 2401.200-2431.200
ISS 30 Jun 11:57:45 11:59:55 16° 342° (NNW) 12:02:03 145.825
GONETS M04 30 Jun 12:08:06 12:13:55 18° 300° (WNW) 12:19:16
TIGRISAT 30 Jun 12:09:33 12:11:00 11° 271° (W) 12:12:10 435.000
QB50P2 30 Jun 12:10:38 12:14:04 23° 266° (W) 12:17:24 145.880/145.840
VELOX 1 30 Jun 12:11:50 12:16:16 76° 285° (WNW) 12:20:39 145.980
POPSAT HIP 1 30 Jun 12:12:39 12:16:03 22° 266° (W) 12:19:21 437.405
HUMSAT D 30 Jun 12:13:58 12:17:34 29° 289° (WNW) 12:21:08 437.325/437.525
BUGSAT 1 30 Jun 12:19:00 12:22:42 28° 264° (W) 12:26:22 437.445
TISAT 1 30 Jun 12:39:37 12:42:47 21° 93° (E) 12:46:01 437.305
DX 1 30 Jun 12:40:18 12:43:37 21° 293° (WNW) 12:46:47 434.975-435.025
VERMONT LUNAR 30 Jun 12:47:11 12:50:22 87° 3° (N) 12:53:34 437.305
AISAT 30 Jun 12:58:05 13:01:40 24° 292° (WNW) 13:05:07 437.250
Oscar 19 30 Jun 13:09:23 13:14:19 50° 72° (ENE) 13:19:18 437.125/150
UKube-1 30 Jun 13:09:55 13:11:32 12° 297° (WNW) 13:12:56 .
ITAMSAT 1 30 Jun 13:12:48 13:15:49 16° 63° (ENE) 13:19:03 435.822/435.867
ESTCUBE 1 30 Jun 13:12:56 13:16:48 27° 291° (WNW) 13:20:32 437.505/2401.250
SPROUT 30 Jun 13:14:12 13:18:31 84° 105° (ESE) 13:22:46 437.525
CUBEBUG 1 30 Jun 13:31:15 13:34:27 20° 293° (WNW) 13:37:31 437.445
PHONESAT 2.4 30 Jun 13:35:12 13:38:41 80° 358° (N) 13:42:11 2401.200-2431.200
ISS 30 Jun 13:36:27 13:37:21 11° 2° (N) 13:38:16 145.825
Cosmos 2499 30 Jun 13:36:31 13:40:59 17° 297° (WNW) 13:45:07 435.465 / 435.565
RS-15 30 Jun 13:45:41 13:56:46 48° 249° (WSW) 14:08:01 29.354- 29.394
YUBILEINY 30 Jun 13:47:12 13:53:32 23° 64° (ENE) 14:00:13 435.215
BEESAT 30 Jun 14:06:42 14:10:57 31° 96° (E) 14:15:15 436.000
Cosmos 2491 30 Jun 14:10:17 14:13:35 13° 77° (ENE) 14:17:35 435.465 / 435.565
AO-7 30 Jun 14:11:23 14:16:59 21° 53° (NE) 14:22:54 29.400- 29.500
TISAT 1 30 Jun 14:14:54 14:18:37 30° 289° (WNW) 14:22:14 437.305
Gurwin Techsat 1B 30 Jun 14:16:39 14:21:53 63° 74° (ENE) 14:27:10 435.225
SWISSCUBE 30 Jun 14:21:17 14:25:57 49° 99° (E) 14:30:36 437.505
VERMONT LUNAR 30 Jun 14:24:14 14:27:12 35° 203° (SSW) 14:30:09 437.305
ITUPSAT 1 30 Jun 14:24:19 14:28:58 47° 99° (E) 14:33:37 437.325
JAS-2 30 Jun 14:47:47 14:52:07 29° 67° (ENE) 14:56:39 435.910
ITAMSAT 1 30 Jun 14:49:39 14:54:50 66° 258° (WSW) 15:00:03 435.822/435.867
Oscar 19 30 Jun 14:50:22 14:54:02 19° 269° (W) 14:57:29 437.125/150
HORYU 2 30 Jun 14:56:55 15:00:06 20° 67° (ENE) 15:03:24 437.375
KKS-1 30 Jun 14:58:58 15:01:57 18° 92° (E) 15:05:04 437.445
ISS 30 Jun 15:12:11 15:14:43 20° 22° (NNE) 15:17:14 145.825
PHONESAT 2.4 30 Jun 15:13:15 15:16:43 64° 197° (SSW) 15:20:11 2401.200-2431.200
AIST 1 30 Jun 15:14:41 15:15:56 11° 85° (E) 15:17:27
PCSat 30 Jun 15:41:11 15:44:19 16° 106° (ESE) 15:47:42 145.827
YUBILEINY 30 Jun 15:42:43 15:51:28 77° 265° (W) 16:00:12 435.215
BEESAT 30 Jun 15:44:40 15:48:43 27° 292° (WNW) 15:52:39 436.000
Gurwin Techsat 1B 30 Jun 15:59:09 16:02:24 16° 271° (W) 16:05:23 435.225
SWISSCUBE 30 Jun 16:00:08 16:03:28 18° 295° (WNW) 16:06:38 437.505
Cosmos 2491 30 Jun 16:00:22 16:09:08 76° 95° (E) 16:17:58 435.465 / 435.565
AO-7 30 Jun 16:00:28 16:08:49 89° 72° (ENE) 16:17:15 29.400- 29.500
STARS 30 Jun 16:01:27 16:05:44 53° 100° (E) 16:10:01 437.465
ITUPSAT 1 30 Jun 16:03:07 16:06:32 19° 295° (WNW) 16:09:49 437.325
MOZHAYETS 4 30 Jun 16:20:30 16:22:54 14° 89° (E) 16:25:31
HORYU 2 30 Jun 16:32:27 16:36:32 36° 263° (W) 16:40:37 437.375
JAS-2 30 Jun 16:32:41 16:37:17 31° 265° (W) 16:41:52 435.910
KKS-1 30 Jun 16:34:39 16:38:48 39° 288° (WNW) 16:42:53 437.445
ISS 30 Jun 16:48:09 16:51:23 64° 219° (SW) 16:54:34 145.825
AIST 1 30 Jun 16:48:47 16:53:07 58° 280° (W) 16:57:29
PHONESAT 2.4 30 Jun 16:51:54 16:54:24 18° 210° (SSW) 16:56:51 2401.200-2431.200
CUTE-I 30 Jun 16:54:51 16:57:16 14° 61° (ENE) 16:59:57 437.470
Cosmos 2504 30 Jun 17:05:35 17:12:46 44° 75° (ENE) 17:20:31 435.465 / 435.565
BEESAT 3 30 Jun 17:13:41 17:17:39 49° 54° (NE) 17:21:32 437.485
BEESAT 2 30 Jun 17:19:30 17:23:27 44° 53° (NE) 17:27:20 435.950
PCSat 30 Jun 17:21:52 17:27:14 66° 301° (WNW) 17:32:40 145.827
Cubesat XI-IV 30 Jun 17:25:28 17:29:46 26° 66° (ENE) 17:34:12 437.490
SO-50 30 Jun 17:37:57 17:42:17 39° 115° (ESE) 17:46:48 436.795
STARS 30 Jun 17:39:21 17:41:47 14° 295° (WNW) 17:44:03 437.465
YUBILEINY 30 Jun 17:42:56 17:47:00 13° 283° (WNW) 17:50:25 435.215
MOZHAYETS 4 30 Jun 17:55:59 18:00:32 54° 286° (WNW) 18:05:03
O/OREOS (USA 219) 30 Jun 17:56:37 18:00:50 38° 62° (ENE) 18:05:05 437.305
AO-7 30 Jun 17:57:23 18:02:50 18° 272° (W) 18:07:47 29.400- 29.500
Cosmos 2491 30 Jun 18:00:14 18:07:05 23° 296° (WNW) 18:13:35 435.465 / 435.565
AIST 2 30 Jun 18:08:39 18:12:36 38° 52° (NE) 18:16:29 435.215
CUBESAT XI-V 30 Jun 18:11:12 18:14:17 18° 91° (E) 18:17:30 437.345
CUTE-I 30 Jun 18:31:21 18:36:42 83° 256° (WSW) 18:42:08 437.470
PRISM 30 Jun 18:45:19 18:45:38 10° 88° (E) 18:46:13 437.425
BEESAT 3 30 Jun 18:53:00 18:55:13 14° 250° (WSW) 18:57:16 437.485
STRAND 1 30 Jun 18:57:21 19:00:51 19° 91° (E) 19:04:32 437.568
BEESAT 2 30 Jun 18:58:38 19:01:11 16° 249° (WSW) 19:03:33 435.950
Cosmos 2504 30 Jun 18:59:14 19:06:04 35° 272° (W) 19:13:11 435.465 / 435.565
Cubesat XI-IV 30 Jun 19:04:38 19:09:41 41° 262° (W) 19:14:44 437.490
PCSat 30 Jun 19:09:37 19:11:50 12° 322° (NW) 19:13:50 145.827
HO-68 30 Jun 19:10:14 19:15:11 21° 59° (ENE) 19:20:22 435.675
CUSAT 1 30 Jun 19:13:58 19:16:09 20° 72° (ENE) 19:18:12 437.405
DOVE 4 30 Jun 19:18:00 19:19:40 12° 65° (ENE) 19:21:34 437.250
SO-50 30 Jun 19:18:51 19:22:57 27° 314° (NW) 19:27:07 436.795
O/OREOS (USA 219) 30 Jun 19:36:44 19:40:01 19° 258° (WSW) 19:43:10 437.305
GOMX 1 30 Jun 19:47:00 19:51:48 38° 72° (ENE) 19:56:26 467.674
DANDE 30 Jun 19:47:08 19:50:05 40° 76° (ENE) 19:52:38 436.750
CUBESAT XI-V 30 Jun 19:47:30 19:52:00 44° 287° (WNW) 19:56:25 437.345
AIST 2 30 Jun 19:47:50 19:50:56 20° 248° (WSW) 19:53:52 435.215
BRITE-PL 30 Jun 19:48:33 19:54:05 65° 75° (ENE) 19:59:22 437.365/2234.400
CUTE 1.7 + AOD 2 30 Jun 19:54:13 19:57:18 21° 69° (ENE) 20:00:29 437.475
CANX-2 30 Jun 19:56:35 19:59:55 24° 70° (ENE) 20:03:23 2200.000
COMPASS 1 30 Jun 19:59:11 20:01:29 15° 67° (ENE) 20:03:58 437.405
PRISM 30 Jun 20:17:24 20:21:34 63° 286° (WNW) 20:25:42 437.425
GONETS M04 30 Jun 20:18:06 20:26:19 45° 74° (ENE) 20:34:35
CINEMA 3 30 Jun 20:33:05 20:37:04 30° 71° (ENE) 20:40:57 145.822/145.860
STRAND 1 30 Jun 20:35:24 20:40:23 50° 288° (WNW) 20:45:19 437.568
SEEDS 30 Jun 20:48:18 20:52:26 69° 76° (ENE) 20:56:36 437.485
DOVE 4 30 Jun 20:51:55 20:56:58 79° 259° (W) 21:01:44 437.250
Oscar 11 30 Jun 20:53:57 20:57:23 24° 69° (ENE) 21:00:54 145.826/435.025
HO-68 30 Jun 20:55:05 21:02:15 77° 256° (WSW) 21:09:26 435.675
AUBIESAT-1 30 Jun 21:07:56 21:11:36 30° 102° (ESE) 21:15:31 437.475
AAUSAT CUBESAT 2 30 Jun 21:10:17 21:14:24 83° 79° (E) 21:18:34 437.432
FUNcube-1 30 Jun 21:13:46 21:17:01 22° 69° (ENE) 21:20:19 145.935
UWE-3 30 Jun 21:14:07 21:17:50 30° 71° (ENE) 21:21:33 435.000/436.395/437.385
GOMX 1 30 Jun 21:25:38 21:30:01 25° 266° (W) 21:34:06 467.674
CUTE 1.7 + AOD 2 30 Jun 21:29:15 21:33:02 32° 264° (W) 21:36:49 437.475
BRITE-PL 30 Jun 21:29:27 21:33:00 16° 270° (W) 21:36:13 437.365/2234.400
Cosmos 2499 30 Jun 21:30:43 21:36:58 27° 69° (ENE) 21:43:48 435.465 / 435.565
HUMSAT D 30 Jun 21:30:50 21:33:07 15° 67° (ENE) 21:35:33 437.325/437.525
CANX-2 30 Jun 21:32:11 21:35:47 27° 265° (W) 21:39:21 2200.000
COMPASS 1 30 Jun 21:32:52 21:36:50 44° 262° (W) 21:40:49 437.405
M-CUBED/EXP-1 PRIME 30 Jun 21:37:41 21:41:47 77° 107° (ESE) 21:46:13 437.505
CUBEBUG 2 30 Jun 21:49:44 21:54:07 83° 257° (WSW) 21:58:23 437.445
DELFI C3 30 Jun 21:55:23 21:59:22 84° 80° (E) 22:03:25 145.870
DX 1 30 Jun 21:58:40 22:02:24 29° 69° (ENE) 22:06:13 434.975-435.025
CINEMA 3 30 Jun 22:10:27 22:14:17 25° 265° (W) 22:17:55 145.822/145.860
ZACube-1 30 Jun 22:10:43 22:15:00 80° 259° (W) 22:19:12 437.345
GONETS M04 30 Jun 22:15:13 22:23:04 38° 273° (W) 22:30:44
AISAT 30 Jun 22:18:35 22:22:17 27° 69° (ENE) 22:26:04 437.250
TIGRISAT 30 Jun 22:23:29 22:25:15 12° 90° (E) 22:27:16 435.000
UKube-1 30 Jun 22:25:34 22:29:46 51° 73° (ENE) 22:34:01 .
50 SAT 30 Jun 22:27:11 22:30:33 31° 72° (ENE) 22:33:59 437.505
Oscar 11 30 Jun 22:29:45 22:33:29 28° 265° (W) 22:37:10 145.826/435.025
ESTCUBE 1 30 Jun 22:35:21 22:38:59 25° 69° (ENE) 22:42:45 437.505/2401.250
AUBIESAT-1 30 Jun 22:42:51 22:46:13 24° 295° (WNW) 22:49:43 437.475
HO-68 30 Jun 22:48:44 22:51:18 12° 275° (W) 22:53:16 435.675
FUNcube-1 30 Jun 22:49:29 22:53:14 29° 264° (W) 22:56:53 145.935
CUBEBUG 1 30 Jun 22:49:49 22:53:39 29° 70° (ENE) 22:57:32 437.445
UWE-3 30 Jun 22:51:01 22:54:25 22° 266° (W) 22:57:41 435.000/436.395/437.385
UNISAT 6 30 Jun 22:59:38 23:03:35 33° 97° (E) 23:07:37 437.425
QB50P1 30 Jun 23:02:43 23:04:50 14° 90° (E) 23:07:09 145.935-145.965
HUMSAT D 30 Jun 23:04:37 23:08:33 43° 262° (W) 23:12:29 437.325/437.525
VELOX 1 30 Jun 23:08:24 23:12:53 88° 77° (ENE) 23:17:23 145.980
M-CUBED/EXP-1 PRIME 30 Jun 23:15:11 23:16:13 11° 299° (WNW) 23:17:03 437.505
NANOSAT C BR1 30 Jun 23:17:49 23:20:56 21° 93° (E) 23:24:09 145.865
Cosmos 2499 30 Jun 23:23:00 23:30:36 60° 267° (W) 23:38:44 435.465 / 435.565
POLYITAN 1 30 Jun 23:25:35 23:29:05 26° 95° (E) 23:32:39 437.675
DUCHIFAT 1 30 Jun 23:26:01 23:29:27 25° 95° (E) 23:32:57 145.980
TISAT 1 30 Jun 23:31:53 23:34:25 16° 66° (ENE) 23:37:07 437.305
DX 1 30 Jun 23:35:00 23:38:39 25° 265° (W) 23:42:14 434.975-435.025
ANTELSAT 30 Jun 23:43:46 23:48:08 77° 284° (WNW) 23:52:33 437.575/2403.000
AISAT 30 Jun 23:54:55 23:58:48 28° 265° (W) 00:02:38 437.250
QB50P2 30 Jun 23:55:30 23:59:40 59° 100° (E) 00:03:49 145.880/145.840
POPSAT HIP 1 30 Jun 23:57:20 00:01:29 60° 100° (E) 00:05:38 437.405
TIGRISAT 30 Jun 23:58:09 00:02:24 55° 286° (WNW) 00:06:42 435.000
BUGSAT 1 01 Jul 00:01:24 00:05:15 40° 98° (E) 00:09:05 437.445
50 SAT 01 Jul 00:02:41 00:05:18 17° 268° (W) 00:07:47 437.505
UKube-1 01 Jul 00:04:00 00:06:16 13° 270° (W) 00:08:19 .
SPROUT 01 Jul 00:07:27 00:11:41 58° 75° (ENE) 00:15:57 437.525
ESTCUBE 1 01 Jul 00:11:43 00:15:45 30° 264° (W) 00:19:45 437.505/2401.250
CUBEBUG 1 01 Jul 00:26:19 00:30:00 24° 266° (W) 00:33:37 437.445
PCSat 01 Jul 00:28:30 00:31:30 15° 41° (NE) 00:34:40 145.827
UNISAT 6 01 Jul 00:36:51 00:40:12 21° 291° (WNW) 00:43:29 437.425
QB50P1 01 Jul 00:36:58 00:41:01 46° 287° (WNW) 00:45:01 145.935-145.965
NANOSAT C BR1 01 Jul 00:53:06 00:56:51 31° 289° (WNW) 01:00:31 145.865
POLYITAN 1 01 Jul 01:01:27 01:04:56 25° 290° (WNW) 01:08:20 437.675
DUCHIFAT 1 01 Jul 01:01:42 01:05:14 26° 290° (WNW) 01:08:40 145.980
TISAT 1 01 Jul 01:05:48 01:09:52 44° 262° (W) 01:13:56 437.305
BEESAT 01 Jul 01:12:35 01:16:50 34° 70° (ENE) 01:21:10 436.000
Oscar 19 01 Jul 01:22:32 01:25:57 18° 91° (E) 01:29:32 437.125/150
SWISSCUBE 01 Jul 01:27:06 01:31:43 52° 73° (ENE) 01:36:24 437.505
ITUPSAT 1 01 Jul 01:30:24 01:35:01 51° 72° (ENE) 01:39:41 437.325
QB50P2 01 Jul 01:33:21 01:35:07 12° 295° (WNW) 01:36:42 145.880/145.840
POPSAT HIP 1 01 Jul 01:35:12 01:36:55 12° 295° (WNW) 01:38:25 437.405
BUGSAT 1 01 Jul 01:37:54 01:40:26 16° 293° (WNW) 01:42:46 437.445
SPROUT 01 Jul 01:46:35 01:48:13 12° 271° (W) 01:49:36 437.525
KKS-1 01 Jul 01:57:06 01:59:50 17° 66° (ENE) 02:02:43 437.445
RS-15 01 Jul 01:57:40 02:06:35 32° 106° (ESE) 02:16:01 29.354- 29.394
SO-50 01 Jul 02:09:55 02:14:22 33° 48° (NE) 02:18:48 436.795
PCSat 01 Jul 02:10:21 02:15:49 86° 61° (ENE) 02:21:15 145.827
Cosmos 2491 01 Jul 02:12:01 02:19:52 36° 71° (ENE) 02:27:47 435.465 / 435.565
Gurwin Techsat 1B 01 Jul 02:34:04 02:38:26 26° 94° (E) 02:42:54 435.225
YUBILEINY 01 Jul 02:48:20 02:54:50 26° 83° (E) 03:01:41 435.215
BEESAT 01 Jul 02:50:51 02:54:46 24° 266° (W) 02:58:35 436.000
AIST 1 01 Jul 02:56:53 03:00:46 31° 75° (ENE) 03:04:39
STARS 01 Jul 02:57:36 03:01:46 43° 72° (ENE) 03:05:57 437.465
Oscar 19 01 Jul 03:00:42 03:05:39 50° 288° (WNW) 03:10:35 437.125/150
ITAMSAT 1 01 Jul 03:03:14 03:08:15 47° 99° (E) 03:13:16 435.822/435.867
SWISSCUBE 01 Jul 03:06:58 03:09:57 16° 270° (W) 03:12:46 437.505
ITUPSAT 1 01 Jul 03:10:11 03:13:16 16° 269° (W) 03:16:10 437.325
MOZHAYETS 4 01 Jul 03:22:40 03:24:46 13° 64° (ENE) 03:27:04
KKS-1 01 Jul 03:31:49 03:36:08 47° 261° (W) 03:40:27 437.445
JAS-2 01 Jul 03:39:40 03:45:28 34° 96° (E) 03:51:58 435.910
SO-50 01 Jul 03:50:29 03:54:55 33° 246° (WSW) 03:59:13 436.795
PCSat 01 Jul 03:56:32 03:58:35 12° 256° (WSW) 04:00:17 145.827
AO-7 01 Jul 04:03:28 04:10:35 31° 95° (E) 04:17:52 29.400- 29.500
Cosmos 2491 01 Jul 04:08:41 04:17:00 49° 270° (W) 04:25:09 435.465 / 435.565
Gurwin Techsat 1B 01 Jul 04:13:37 04:18:32 38° 290° (WNW) 04:23:23 435.225
